ATLAS 5 CENTAUR R/B

基本信息
目录编号:
52942
目录名称:
ATLAS 5 CENTAUR R/B
国际标识:
2022-073C
轨道中心:
EARTH
物体状态:
在轨
发射日期:
2022-07-01 UTC
国别:
美国 (US)
轨道信息
数据来源: 国际轨道数据
星历时间: 2026-07-13T00:12:00+0800
半长轴: 44498.486km
偏心率: 0.0394673
轨道倾角: 4.089°
近地点辐角: 54.194°
升交点赤经: 79.883°
平近点角: 309.159°
近地点: 36364.113km
远地点: 39876.585km
周期: 1556.960分钟
每日圈数: 0.924879
详细信息
发射场:
AFETR
轨道高度:
HEO
数据来源:
AOE Integration Group
参考系:
TEME
时间系统:
UTC
历元类型:
SGP4
2D轨道图
3D轨道图
轨道高度分析图
轨道倾角分析图
轨道综合分析图
查看轨道综合分析图